Radiation Dose at Monitoring Post of Fukushima Daini Nuclear Power Station
Date,Time,MP-1(microSv/h),MP-2(microSv/h),MP-3(microSv/h),MP-4(microSv/h),MP-5(microSv/h),MP-6(microSv/h),MP-7(microSv/h),Wind Direction,Wind Velocity(m/s),Rain
2015/12/20,00:00,0.457,0.271,0.485,0.439,0.419,0.222,0.194,west,7.9,No
2015/12/20,00:10,0.458,0.270,0.484,0.438,0.420,0.221,0.194,west,8.4,No
2015/12/20,00:20,0.456,0.270,0.485,0.439,0.421,0.221,0.194,west-northwest,7.0,No
2015/12/20,00:30,0.456,0.269,0.485,0.439,0.421,0.220,0.194,west,7.7,No
2015/12/20,00:40,0.458,0.269,0.484,0.438,0.420,0.221,0.193,west,7.9,No
2015/12/20,00:50,0.457,0.269,0.484,0.440,0.419,0.222,0.194,west-northwest,7.7,No
2015/12/20,01:00,0.456,0.270,0.485,0.439,0.420,0.221,0.195,west-northwest,7.1,No
2015/12/20,01:10,0.458,0.269,0.484,0.440,0.421,0.221,0.193,west,6.3,No
2015/12/20,01:20,0.457,0.271,0.482,0.438,0.420,0.221,0.194,west-northwest,6.0,No
2015/12/20,01:30,0.457,0.269,0.483,0.439,0.419,0.221,0.194,west,7.3,No
2015/12/20,01:40,0.456,0.270,0.483,0.439,0.420,0.222,0.194,west,6.9,No
2015/12/20,01:50,0.457,0.270,0.483,0.438,0.420,0.221,0.194,west,6.5,No
2015/12/20,02:00,0.458,0.270,0.481,0.439,0.422,0.222,0.193,west,5.6,No
2015/12/20,02:10,0.457,0.270,0.485,0.438,0.420,0.221,0.194,west,4.9,No
2015/12/20,02:20,0.456,0.268,0.484,0.439,0.421,0.219,0.193,west-northwest,4.4,No
2015/12/20,02:30,0.456,0.270,0.483,0.438,0.420,0.221,0.194,west-northwest,4.8,No
2015/12/20,02:40,0.456,0.269,0.483,0.439,0.423,0.220,0.193,west-northwest,4.3,No
2015/12/20,02:50,0.457,0.269,0.482,0.439,0.422,0.221,0.194,northwest,3.4,No
2015/12/20,03:00,0.456,0.270,0.485,0.440,0.419,0.221,0.194,west-northwest,3.4,No
2015/12/20,03:10,0.455,0.268,0.483,0.440,0.420,0.221,0.194,west,4.9,No
2015/12/20,03:20,0.456,0.270,0.482,0.438,0.419,0.221,0.194,west-northwest,5.6,No
2015/12/20,03:30,0.456,0.271,0.484,0.438,0.422,0.221,0.193,west-northwest,5.3,No
2015/12/20,03:40,0.457,0.269,0.486,0.440,0.419,0.222,0.194,west-northwest,5.3,No
2015/12/20,03:50,0.456,0.268,0.483,0.440,0.419,0.221,0.194,west-northwest,5.3,No
2015/12/20,04:00,0.456,0.268,0.482,0.439,0.420,0.221,0.194,west-northwest,4.7,No
2015/12/20,04:10,0.455,0.269,0.482,0.438,0.420,0.221,0.194,west-northwest,3.1,No
2015/12/20,04:20,0.457,0.269,0.484,0.440,0.420,0.221,0.194,west-northwest,3.1,No
2015/12/20,04:30,0.456,0.270,0.486,0.440,0.419,0.221,0.194,west,3.6,No
2015/12/20,04:40,0.456,0.269,0.483,0.440,0.420,0.222,0.194,west-northwest,4.2,No
2015/12/20,04:50,0.456,0.269,0.483,0.438,0.420,0.220,0.194,west-northwest,4.5,No
2015/12/20,05:00,0.457,0.269,0.486,0.439,0.420,0.221,0.195,west-northwest,4.3,No
2015/12/20,05:10,0.457,0.268,0.484,0.439,0.420,0.221,0.195,west,4.1,No
2015/12/20,05:20,0.455,0.270,0.482,0.440,0.419,0.220,0.193,west,3.7,No
2015/12/20,05:30,0.456,0.270,0.482,0.439,0.419,0.220,0.194,west,3.7,No
2015/12/20,05:40,0.456,0.267,0.484,0.438,0.420,0.221,0.195,west,3.7,No
2015/12/20,05:50,0.455,0.267,0.485,0.439,0.420,0.221,0.194,west,4.2,No
2015/12/20,06:00,0.456,0.269,0.485,0.441,0.419,0.221,0.195,west,3.1,No
2015/12/20,06:10,0.455,0.269,0.482,0.440,0.419,0.221,0.195,west,4.2,No
2015/12/20,06:20,0.457,0.269,0.484,0.441,0.419,0.221,0.193,west,5.8,No
2015/12/20,06:30,0.457,0.268,0.484,0.440,0.419,0.221,0.194,west,6.2,No
2015/12/20,06:40,0.455,0.269,0.485,0.439,0.421,0.221,0.194,west,4.8,No
2015/12/20,06:50,0.456,0.269,0.484,0.440,0.419,0.222,0.193,west-northwest,4.3,No
2015/12/20,07:00,0.456,0.270,0.484,0.439,0.418,0.221,0.193,west,3.5,No
2015/12/20,07:10,0.455,0.269,0.484,0.439,0.419,0.221,0.194,west-northwest,5.0,No
2015/12/20,07:20,0.455,0.269,0.483,0.437,0.419,0.221,0.194,west-northwest,6.1,No
2015/12/20,07:30,0.456,0.269,0.484,0.438,0.421,0.221,0.194,northwest,7.3,No
2015/12/20,07:40,0.456,0.269,0.485,0.439,0.419,0.221,0.194,west-northwest,6.5,No
2015/12/20,07:50,0.456,0.270,0.484,0.439,0.419,0.220,0.193,northwest,5.3,No
2015/12/20,08:00,0.454,0.269,0.483,0.438,0.419,0.221,0.194,west-northwest,4.8,No
2015/12/20,08:10,0.454,0.270,0.485,0.438,0.421,0.220,0.194,northwest,3.4,No
2015/12/20,08:20,0.456,0.269,0.484,0.437,0.420,0.222,0.193,northwest,3.6,No
2015/12/20,08:30,0.457,0.268,0.482,0.436,0.418,0.221,0.193,north-northwest,3.1,No
2015/12/20,08:40,0.456,0.271,0.484,0.438,0.419,0.220,0.194,north-northwest,1.6,No
2015/12/20,08:50,0.459,0.270,0.485,0.435,0.420,0.220,0.193,north-northwest,2.3,No
2015/12/20,09:00,0.459,0.269,0.483,0.437,0.420,0.221,0.192,north-northwest,2.6,No
2015/12/20,09:10,0.458,0.269,0.482,0.437,0.420,0.220,0.193,north-northwest,3.7,No
2015/12/20,09:20,0.458,0.269,0.484,0.435,0.420,0.219,0.192,north-northwest,4.2,No
2015/12/20,09:30,0.458,0.269,0.483,0.437,0.420,0.221,0.194,north-northwest,4.8,No
2015/12/20,09:40,0.459,0.268,0.482,0.436,0.419,0.220,0.193,north-northwest,6.4,No
2015/12/20,09:50,0.457,0.269,0.486,0.440,0.420,0.222,0.194,northwest,5.1,No
2015/12/20,10:00,0.456,0.267,0.483,0.437,0.417,0.222,0.194,northwest,4.4,No
2015/12/20,10:10,0.459,0.268,0.480,0.439,0.419,0.221,0.192,northwest,3.8,No
2015/12/20,10:20,0.457,0.268,0.484,0.438,0.421,0.221,0.195,northwest,4.6,No
2015/12/20,10:30,0.455,0.268,0.484,0.437,0.419,0.222,0.193,northwest,5.4,No
2015/12/20,10:40,0.456,0.270,0.481,0.438,0.422,0.221,0.194,west-northwest,7.1,No
2015/12/20,10:50,0.455,0.268,0.484,0.436,0.420,0.222,0.193,northwest,5.5,No
2015/12/20,11:00,0.458,0.268,0.483,0.439,0.421,0.222,0.194,northwest,4.9,No
2015/12/20,11:10,0.455,0.269,0.483,0.438,0.418,0.221,0.194,northwest,6.8,No
2015/12/20,11:20,0.458,0.268,0.485,0.441,0.421,0.221,0.192,northwest,6.6,No
2015/12/20,11:30,0.457,0.269,0.480,0.440,0.418,0.221,0.194,northwest,4.9,No
2015/12/20,11:40,0.457,0.269,0.484,0.441,0.422,0.221,0.193,northwest,3.9,No
2015/12/20,11:50,0.458,0.269,0.480,0.440,0.419,0.221,0.195,west-northwest,3.7,No
2015/12/20,12:00,0.454,0.268,0.483,0.439,0.424,0.222,0.193,northwest,4.8,No
2015/12/20,12:10,0.459,0.270,0.481,0.436,0.420,0.221,0.194,north-northwest,5.0,No
2015/12/20,12:20,0.455,0.269,0.483,0.440,0.422,0.221,0.194,northwest,3.5,No
2015/12/20,12:30,0.459,0.268,0.482,0.436,0.420,0.221,0.194,north-northwest,4.1,No
2015/12/20,12:40,0.455,0.269,0.484,0.440,0.422,0.223,0.194,north-northwest,3.5,No
2015/12/20,12:50,0.459,0.270,0.481,0.436,0.420,0.221,0.193,west,2.5,No
2015/12/20,13:00,0.456,0.269,0.484,0.441,0.424,0.222,0.193,southwest,4.2,No
2015/12/20,13:10,0.458,0.268,0.480,0.438,0.425,0.222,0.195,west-northwest,3.7,No
2015/12/20,13:20,0.459,0.270,0.487,0.442,0.422,0.222,0.192,west-northwest,3.4,No
2015/12/20,13:30,0.456,0.268,0.481,0.438,0.426,0.221,0.195,west,4.1,No
2015/12/20,13:40,0.458,0.270,0.487,0.442,0.422,0.222,0.195,west-northwest,3.8,No
2015/12/20,13:50,0.457,0.269,0.481,0.438,0.422,0.222,0.194,west-northwest,3.4,No
2015/12/20,14:00,0.459,0.270,0.487,0.440,0.421,0.221,0.194,northwest,2.7,No
2015/12/20,14:10,0.458,0.269,0.484,0.436,0.421,0.220,0.194,west-northwest,3.3,No
2015/12/20,14:20,0.458,0.271,0.486,0.441,0.423,0.220,0.194,west-northwest,2.6,No
2015/12/20,14:30,0.462,0.269,0.486,0.438,0.419,0.221,0.194,northwest,2.6,No
2015/12/20,14:40,0.458,0.271,0.484,0.443,0.423,0.221,0.194,-,CALM,No
2015/12/20,14:50,0.458,0.270,0.485,0.438,0.421,0.221,0.194,south-southeast,3.3,No
2015/12/20,15:00,0.458,0.270,0.484,0.442,0.423,0.220,0.194,south,4.4,No
2015/12/20,15:10,0.457,0.270,0.487,0.440,0.423,0.221,0.194,south,4.1,No
2015/12/20,15:20,0.460,0.271,0.483,0.442,0.422,0.221,0.194,south-southeast,3.3,No
2015/12/20,15:30,0.457,0.271,0.485,0.441,0.420,0.221,0.194,south-southeast,3.8,No
2015/12/20,15:40,0.457,0.271,0.482,0.441,0.422,0.222,0.195,south-southeast,3.9,No
2015/12/20,15:50,0.461,0.271,0.483,0.442,0.420,0.222,0.194,south,4.9,No
2015/12/20,16:00,0.457,0.270,0.486,0.441,0.421,0.221,0.194,south,6.9,No
2015/12/20,16:10,0.455,0.271,0.484,0.439,0.421,0.222,0.194,south,6.9,No
2015/12/20,16:20,0.459,0.269,0.483,0.443,0.421,0.221,0.196,south,6.7,No
2015/12/20,16:30,0.457,0.271,0.487,0.440,0.422,0.222,0.195,south,6.6,No
2015/12/20,16:40,0.459,0.271,0.484,0.441,0.422,0.221,0.195,south-southwest,5.8,No
2015/12/20,16:50,0.461,0.270,0.484,0.442,0.421,0.221,0.196,south-southwest,6.1,No
2015/12/20,17:00,0.458,0.269,0.487,0.439,0.422,0.223,0.196,south-southwest,6.3,No
2015/12/20,17:10,0.460,0.270,0.485,0.440,0.422,0.221,0.194,south,6.1,No
2015/12/20,17:20,0.460,0.271,0.484,0.441,0.421,0.220,0.195,south-southwest,6.1,No
2015/12/20,17:30,0.458,0.270,0.487,0.441,0.422,0.222,0.195,south-southwest,7.1,No
2015/12/20,17:40,0.458,0.269,0.484,0.439,0.422,0.222,0.196,south-southwest,7.3,No
2015/12/20,17:50,0.459,0.271,0.484,0.441,0.422,0.221,0.194,south-southwest,6.6,No
2015/12/20,18:00,0.460,0.271,0.486,0.443,0.421,0.222,0.196,south-southwest,8.2,No
2015/12/20,18:10,0.458,0.270,0.486,0.442,0.421,0.221,0.195,southwest,8.5,No
2015/12/20,18:20,0.459,0.270,0.484,0.442,0.421,0.223,0.195,southwest,8.1,No
2015/12/20,18:30,0.459,0.270,0.486,0.442,0.421,0.223,0.197,southwest,7.3,No
2015/12/20,18:40,0.459,0.269,0.485,0.443,0.420,0.223,0.196,southwest,7.3,No
2015/12/20,18:50,0.458,0.272,0.485,0.440,0.421,0.222,0.195,southwest,7.5,No
2015/12/20,19:00,0.459,0.270,0.486,0.440,0.421,0.221,0.195,southwest,7.3,No
2015/12/20,19:10,0.459,0.272,0.487,0.441,0.421,0.222,0.195,south-southwest,5.4,No
2015/12/20,19:20,0.458,0.270,0.485,0.441,0.420,0.221,0.195,southwest,5.0,No
2015/12/20,19:30,0.458,0.271,0.485,0.439,0.420,0.221,0.195,south-southwest,4.2,No
2015/12/20,19:40,0.458,0.271,0.486,0.440,0.421,0.222,0.195,south-southwest,5.5,No
2015/12/20,19:50,0.458,0.269,0.486,0.442,0.421,0.221,0.195,south-southwest,4.6,No
2015/12/20,20:00,0.458,0.270,0.484,0.439,0.420,0.222,0.194,south-southwest,3.2,No
2015/12/20,20:10,0.458,0.270,0.484,0.442,0.422,0.224,0.196,south-southwest,2.0,No
2015/12/20,20:20,0.460,0.271,0.486,0.441,0.422,0.223,0.195,south-southwest,2.6,No
2015/12/20,20:30,0.457,0.271,0.487,0.440,0.421,0.222,0.196,southwest,3.1,No
2015/12/20,20:40,0.459,0.270,0.486,0.441,0.419,0.223,0.195,west-southwest,3.2,No
2015/12/20,20:50,0.459,0.271,0.484,0.441,0.424,0.222,0.196,west-southwest,4.1,No
2015/12/20,21:00,0.459,0.271,0.487,0.443,0.422,0.222,0.196,west-southwest,4.9,No
2015/12/20,21:10,0.457,0.271,0.484,0.440,0.419,0.222,0.196,west-southwest,4.9,No
2015/12/20,21:20,0.458,0.271,0.484,0.440,0.420,0.224,0.195,west-southwest,4.7,No
2015/12/20,21:30,0.459,0.270,0.485,0.439,0.422,0.222,0.195,west-southwest,3.6,No
2015/12/20,21:40,0.460,0.269,0.485,0.442,0.420,0.222,0.195,southwest,2.1,No
2015/12/20,21:50,0.459,0.271,0.486,0.441,0.420,0.223,0.195,west-southwest,2.3,No
2015/12/20,22:00,0.458,0.270,0.486,0.441,0.423,0.222,0.195,southwest,1.9,No
2015/12/20,22:10,0.459,0.270,0.486,0.440,0.420,0.222,0.196,southwest,1.5,No
2015/12/20,22:20,0.459,0.270,0.487,0.441,0.421,0.222,0.196,southwest,2.5,No
2015/12/20,22:30,0.457,0.271,0.485,0.440,0.422,0.222,0.195,south-southwest,2.7,No
2015/12/20,22:40,0.460,0.271,0.486,0.439,0.422,0.222,0.196,south-southwest,3.2,No
2015/12/20,22:50,0.458,0.270,0.486,0.443,0.421,0.222,0.195,south-southwest,2.0,No
2015/12/20,23:00,0.457,0.271,0.485,0.441,0.421,0.222,0.196,south-southwest,2.3,No
2015/12/20,23:10,0.461,0.270,0.485,0.441,0.423,0.223,0.196,south-southwest,2.9,No
2015/12/20,23:20,0.459,0.272,0.488,0.442,0.421,0.223,0.195,south-southwest,3.2,No
2015/12/20,23:30,0.458,0.271,0.486,0.441,0.421,0.223,0.196,south-southwest,3.2,No
2015/12/20,23:40,0.460,0.269,0.484,0.440,0.422,0.223,0.195,south-southwest,3.1,No
2015/12/20,23:50,0.458,0.271,0.487,0.441,0.421,0.223,0.196,southwest,3.1,No
